Vertical_Velocity
-3 -5 -4 -4 -2 -0 1 3 -2 -5 -1 -2 -2 -0 -0 0 -1 -5 -1 -1 -3 3 -1 4 0 1 7 5 7 33 11 2 -20 4 -7 9 -7 -4 -0 -5 -5 1 -1 -8 5
-3 -5 -3 0 0 -2 -1 -5 -5 -4 -0 1 1 -0 -0 1 -2 -3 0 -2 -2 6 -2 2 -0 3 1 1 7 -10 21 -12 20 3 -16 7 4 5 -6 4 -7 -7 1 -8 2
-3 -1 -2 -3 -0 -3 -5 -1 0 -1 2 1 1 -2 -1 0 1 -7 -3 -5 3 6 3 5 6 4 1 5 -4 1 -13 -2 6 -10 7 59 -9 7 -2 -12 0 -4 2 2 -6
-1 -1 -3 0 -5 -3 1 1 -1 -4 -2 -2 -0 -3 -0 0 -5 -3 3 1 3 0 3 6 1 -3 -0 -8 -5 -2 -1 -7 -9 1 29 -16 23 -8 -3 4 21 2 -8 -3 -4
-3 -1 0 -6 1 -1 -2 -4 -0 -4 -1 -1 -1 -1 -1 -1 -3 4 0 0 -1 1 -1 2 1 5 -4 2 12 -4 -4 1 5 8 -9 12 12 -6 -2 5 -1 -3 -18 -2 1
-1 -2 -3 -1 -2 -3 -1 -4 -2 -4 -1 2 2 -1 0 -5 1 3 0 -0 -7 10 -1 1 3 8 4 -7 17 -1 -1 -1 3 -14 21 2 -13 1 5 1 -0 -7 -14 -1 0
-1 -1 -3 -1 -4 -1 -1 1 0 -2 -1 -1 0 -0 -2 -3 -0 -3 1 2 4 -2 6 -2 0 0 10 14 -11 6 11 1 -12 7 -16 6 -3 23 -3 -3 -1 -3 3 -7 -3
-2 -3 -2 -2 2 -4 -1 1 1 -2 -1 -1 0 0 -2 -0 -1 -6 1 0 -5 -2 -0 5 -2 6 2 -4 28 -4 11 6 -11 21 -10 19 -15 -19 18 -3 -0 0 -3 -4 -8
-1 -1 -0 1 -6 2 -3 -1 -3 -3 -2 -1 -3 -0 9 -1 -6 -4 -0 3 -3 1 0 -1 7 -2 15 -6 5 24 -11 -4 3 1 8 -3 -9 -30 16 7 4 -1 1 2 1
-2 -2 -1 -2 -1 -1 -0 -2 2 3 -4 -4 -3 -3 -0 -2 -4 -6 1 -0 1 6 9 3 -8 9 -9 16 -20 -13 -1 9 -8 -3 16 -0 -6 -13 -4 15 -10 7 -1 -1 -2
-4 0 -1 -4 -4 -5 -0 -10 6 1 -2 -8 -5 -2 1 -0 -4 -1 0 -1 -2 7 5 11 2 -10 5 -3 9 -1 14 -7 4 1 -5 -4 -2 -30 2 21 10 20 -4 -0 1
0 -2 -5 -5 -2 -4 -10 -4 -3 -4 -5 -4 -3 -4 -2 -2 -7 5 3 -3 5 -5 6 -2 -1 0 -4 12 0 10 -3 -5 8 -4 26 10 -9 7 -32 3 44 -3 16 5 -5
-3 -5 -2 -0 -1 -4 -2 -4 1 -1 -6 -3 -0 -1 1 -2 -2 2 -2 2 -1 1 1 2 -16 11 -3 7 5 2 3 -3 -2 3 9 2 6 6 13 -32 -7 14 -0 -2 1
-5 -1 -2 2 -6 -1 -5 1 -1 1 -6 3 7 -6 0 -2 7 -1 1 -1 -0 -1 6 -2 -0 2 6 -3 2 -2 4 -5 17 24 -5 -4 -7 -6 -9 -4 -17 -10 -10 -4 -2
-4 -2 -1 -9 -3 -4 -4 -1 1 1 1 -7 -1 2 -6 7 -7 10 1 5 -5 -3 0 -1 9 -3 1 -10 10 -3 9 -4 12 -3 19 3 20 -2 7 -3 -25 -2 2 -0 -10
-5 -4 -5 -4 -4 3 0 -2 -2 -4 5 -3 4 -10 -4 -5 9 0 3 -1 -2 -3 1 -7 0 -6 1 -11 17 -2 -2 -2 2 31 12 0 -8 -9 -12 -19 8 -12 0 -0 -1
-4 -4 -2 0 0 0 -2 -4 -2 2 -2 -6 -10 -4 -5 -3 2 3 -3 3 -0 1 6 4 -8 -2 -3 3 9 -0 3 4 11 12 -4 -2 10 -28 5 2 -2 -10 -3 -4 -0
-3 -2 -1 1 -1 -5 -4 -7 2 -1 2 2 -1 -6 6 -6 0 -1 -3 8 11 -3 2 0 3 -1 -1 -10 -12 -1 -2 -1 -1 -3 -7 3 -2 -36 -6 -1 -1 3 -1 10 -8
1 -4 -3 -2 -5 -5 -4 -0 1 -1 2 -7 -9 -3 -2 8 -1 -4 -1 6 10 -1 7 -3 -1 1 -1 5 3 -5 -8 -5 6 6 3 -8 -5 -7 4 -4 -12 -0 7 -2 -3
0 -2 -3 -3 -2 -4 -2 -1 -1 -1 -1 -2 6 0 -1 -3 -3 0 -0 -1 -6 3 17 -3 2 -5 2 6 5 8 5 9 -2 2 2 2 -1 -1 -4 -9 -2 -6 -7 4 -2
-0 -8 -6 -5 -3 -5 -3 1 -0 1 0 -3 -1 -4 1 5 1 -0 -3 3 1 -4 8 9 8 1 1 -8 -6 21 0 9 8 3 1 -0 -6 10 5 10 1 3 5 -1 -4
-2 -5 -4 -5 -1 -7 -5 -3 -2 2 2 -2 -1 2 0 -1 -6 2 2 8 2 0 -10 12 -3 3 -14 4 3 -7 -4 1 -3 0 2 -1 -2 2 -0 -2 1 4 1 9 6
-7 -0 -4 -4 -7 -3 -0 1 -3 -7 1 -0 -1 1 -1 -3 -4 6 0 -1 -1 -1 -2 -0 1 5 7 11 -1 7 -0 1 2 7 -4 2 9 2 1 3 5 1 3 -1 -0
-10 -0 -7 -3 0 -1 -4 -0 -0 0 -3 -0 -2 2 -3 -3 5 -13 -4 -8 2 -1 4 8 3 10 8 4 -9 1 -2 1 1 5 -2 -9 7 -0 6 1 4 1 2 2 6
-3 -1 -5 -2 -1 -1 -1 -2 1 -6 4 1 1 3 3 -9 -7 -5 7 -1 9 -0 2 2 -1 1 2 -5 8 -2 -2 -2 -2 7 -0 -1 4 -0 -1 0 4 4 4 2 4
-2 -2 0 1 0 -4 -3 -3 -2 -0 -1 2 1 -0 3 1 5 -20 -3 23 4 5 -1 4 -5 -4 2 -3 8 7 2 -6 -0 -1 18 -1 -2 -9 2 2 1 5 3 3 4
-4 1 4 -1 -5 -2 -0 -3 -3 -5 3 3 0 -7 1 2 -0 2 5 2 -4 -5 0 -3 2 -3 5 2 13 16 9 -1 5 6 9 5 12 -1 7 6 4 3 1 3 3
Height
3090 3085 3080 3075 3069 3064 3058 3054 3049 3043 3036 3031 3027 3023 3018 3015 3012 3013 3013 3013 3014 3020 3020 3023 3026 3030 3035 3038 3043 3045 3049 3044 3049 3057 3063 3061 3066 3070 3075 3079 3081 3085 3089 3088 3096
3085 3081 3076 3071 3065 3059 3053 3049 3044 3037 3030 3025 3020 3016 3012 3008 3005 3007 3007 3005 3004 3012 3014 3018 3022 3026 3028 3033 3036 3037 3034 3036 3049 3056 3060 3058 3063 3067 3070 3073 3075 3081 3085 3088 3092
3083 3077 3071 3066 3060 3055 3048 3043 3038 3031 3025 3020 3014 3009 3005 3002 3000 2998 2999 2999 2999 3004 3007 3012 3018 3024 3024 3026 3029 3031 3029 3038 3043 3048 3051 3052 3059 3065 3065 3069 3073 3077 3081 3086 3090
3080 3073 3068 3062 3056 3049 3043 3038 3032 3025 3019 3015 3009 3004 3001 2999 3003 2996 2997 2997 2998 2997 3001 3004 3008 3015 3018 3018 3022 3026 3028 3034 3040 3043 3046 3047 3058 3059 3061 3065 3072 3074 3078 3082 3087
3076 3069 3063 3058 3052 3045 3038 3032 3026 3019 3014 3009 3004 2999 2996 2993 2994 2993 2991 2990 2993 2993 2995 2997 3002 3008 3011 3013 3021 3020 3026 3031 3036 3038 3040 3046 3047 3053 3056 3060 3063 3067 3074 3078 3083
3072 3065 3060 3054 3048 3041 3033 3027 3021 3014 3009 3004 2999 2995 2993 2991 2990 2989 2985 2985 2988 2989 2991 2993 2998 3005 3009 3010 3016 3018 3022 3028 3032 3031 3033 3038 3042 3048 3053 3054 3058 3062 3068 3075 3080
3069 3062 3056 3050 3043 3036 3030 3023 3017 3011 3005 3000 2996 2992 2990 2990 2987 2985 2983 2983 2984 2985 2989 2992 2995 2999 3001 3007 3011 3015 3018 3021 3025 3028 3028 3033 3035 3039 3050 3050 3054 3059 3063 3071 3076
3066 3059 3053 3046 3039 3032 3027 3020 3014 3009 3003 2999 2994 2991 2989 2988 2986 2986 2983 2982 2981 2982 2982 2985 2989 2992 2994 3003 3008 3011 3014 3014 3017 3025 3027 3028 3027 3035 3044 3047 3052 3056 3060 3066 3072
3063 3056 3049 3042 3035 3028 3023 3018 3011 3005 3001 2995 2993 2991 2992 2988 2986 2985 2982 2981 2980 2980 2979 2980 2985 2988 2993 2999 3003 3002 3003 3006 3013 3018 3022 3024 3025 3030 3038 3043 3050 3053 3057 3061 3066
3060 3053 3046 3039 3032 3026 3020 3015 3011 3006 2997 2994 2995 2995 2992 2989 2986 2983 2979 2977 2978 2979 2978 2978 2979 2983 2988 2992 2991 2995 2999 3003 3007 3013 3017 3019 3020 3024 3031 3036 3044 3050 3052 3057 3060
3058 3051 3044 3037 3030 3023 3017 3011 3008 3002 2998 2996 2996 2994 2991 2987 2984 2980 2978 2976 2975 2978 2977 2977 2976 2975 2981 2985 2992 2997 2996 2999 3003 3009 3013 3014 3017 3022 3024 3027 3038 3042 3048 3051 3056
3055 3048 3041 3034 3027 3020 3014 3008 3003 3000 2997 2995 2994 2992 2989 2985 2980 2981 2978 2976 2976 2976 2977 2976 2972 2977 2981 2981 2986 2990 2993 2995 3000 3003 3009 3011 3014 3017 3021 3025 3026 3036 3041 3045 3050
3054 3046 3039 3031 3024 3019 3014 3009 3003 2997 2995 2995 2993 2990 2988 2985 2981 2980 2977 2975 2974 2973 2973 2973 2972 2973 2975 2978 2977 2982 2988 2993 2997 3001 3004 3009 3010 3013 3016 3018 3022 3030 3036 3040 3046
3052 3044 3037 3030 3024 3017 3012 3008 3003 2997 2994 2998 2995 2990 2988 2984 2981 2977 2975 2975 2971 2971 2970 2969 2969 2969 2971 2974 2977 2979 2986 2991 2993 2997 2995 3004 3002 3006 3010 3014 3019 3024 3031 3035 3040
3050 3042 3035 3026 3022 3016 3013 3008 3003 2999 2997 2998 2994 2990 2987 2987 2982 2977 2973 2971 2969 2968 2969 2968 2966 2966 2968 2971 2976 2978 2985 2988 2992 2993 2996 2998 3003 2997 3003 3008 3014 3021 3027 3031 3037
3049 3041 3033 3026 3019 3016 3011 3006 3003 3002 2998 2998 2995 2990 2986 2985 2982 2977 2973 2970 2967 2965 2963 2962 2963 2963 2966 2969 2974 2980 2983 2987 2990 2990 2987 2988 2994 2992 2995 2995 3004 3016 3022 3027 3034
3048 3040 3032 3025 3021 3015 3010 3006 3004 3001 3004 3000 2994 2989 2987 2985 2981 2977 2972 2969 2968 2965 2960 2960 2958 2958 2961 2964 2971 2975 2981 2982 2987 2986 2979 2983 2992 2990 2992 2997 3002 3008 3015 3021 3027
3046 3038 3031 3024 3018 3013 3008 3007 3006 3006 3004 2999 2994 2990 2989 2986 2980 2975 2973 2970 2968 2964 2960 2959 2955 2954 2954 2958 2963 2967 2975 2970 2965 2967 2975 2985 2983 2981 2988 2993 2999 3005 3010 3016 3021
3045 3038 3030 3022 3017 3012 3009 3009 3009 3006 3003 2999 2993 2992 2990 2988 2984 2977 2974 2971 2969 2966 2965 2959 2954 2952 2953 2955 2962 2965 2966 2966 2969 2964 2970 2976 2979 2980 2984 2989 2993 2999 3006 3010 3014
3043 3036 3029 3021 3015 3011 3011 3010 3009 3004 3001 2999 2997 2995 2991 2987 2983 2979 2975 2972 2968 2965 2962 2957 2954 2951 2952 2955 2958 2962 2967 2972 2969 2961 2965 2965 2972 2976 2977 2982 2988 2994 2999 3005 3009
3041 3033 3027 3019 3015 3013 3012 3010 3007 3005 3000 3000 2999 2996 2993 2989 2984 2980 2977 2974 2969 2963 2959 2956 2954 2951 2951 2949 2953 2959 2959 2965 2968 2966 2966 2962 2968 2972 2977 2982 2986 2989 2995 3001 3005
3039 3032 3024 3017 3016 3011 3010 3010 3009 3007 3003 2999 2998 2997 2994 2989 2982 2980 2977 2976 2971 2965 2957 2956 2952 2947 2946 2949 2952 2957 2960 2963 2965 2966 2970 2976 2975 2971 2973 2977 2981 2985 2990 2997 3004
3034 3026 3021 3015 3012 3008 3008 3006 3005 3004 3003 2999 2997 2996 2993 2989 2985 2980 2977 2974 2968 2963 2959 2956 2951 2943 2942 2947 2951 2952 2955 2959 2962 2968 2968 2975 2972 2972 2973 2975 2979 2983 2987 2992 2999
3031 3025 3018 3012 3011 3009 3006 3005 3002 3001 3000 2998 2996 2995 2991 2986 2985 2978 2974 2970 2965 2962 2959 2954 2950 2948 2943 2941 2943 2947 2951 2956 2963 2965 2968 2973 2975 2973 2973 2974 2977 2982 2987 2991 2997
3029 3023 3016 3013 3010 3009 3007 3006 3003 3000 2998 2995 2994 2994 2991 2984 2979 2975 2972 2964 2961 2959 2957 2954 2949 2946 2940 2939 2941 2945 2951 2955 2960 2964 2969 2975 2975 2973 2972 2973 2976 2980 2985 2991 2996
3028 3022 3016 3012 3010 3009 3006 3004 3002 3000 2997 2993 2992 2989 2987 2984 2982 2971 2970 2968 2960 2957 2954 2953 2949 2943 2936 2937 2940 2947 2952 2958 2962 2966 2969 2971 2970 2973 2972 2973 2975 2979 2984 2990 2995
3023 3019 3013 3012 3007 3006 3006 3003 2999 2997 2993 2992 2988 2984 2982 2980 2976 2972 2968 2963 2959 2956 2954 2952 2949 2943 2938 2938 2941 2950 2954 2957 2958 2963 2968 2969 2972 2977 2975 2974 2975 2977 2982 2988 2992